Location: Asbacherhof
(48.8543°N, 10.7903°E)
Time: 23:37:01
(UTC+00:00)

COSMOS 2441 - Pass Details

Date: 26 May 2022
Orbit: 707 x 732 km, 98.1° (Epoch: 26 June)

Event Time Altitude Azimuth Distance (km) Brightness Sun altitude
Rises 02:10:18 0° 13° (NNE) 3,156 8.9 -9.8°
Reaches altitude 10° 02:12:35 10° 13° (NNE) 2,226 8.0 -9.5°
Maximum altitude 02:17:29 86° 286° (WNW) 729 4.4 -9.0°
Drops below altitude 10° 02:22:19 10° 198° (SSW) 2,194 6.3 -8.4°
Enters shadow 02:22:50 - 198° (SSW) 2,403 6.5 -8.4°
